Regional Weather Roundup
Issued by NWS

Home | Current Version | Previous Version | Graphics & Text | Print | Product List | Glossary On
Versions: 1 2 3 4 5 6 7 8 9 10 11 12 13 14 15 16 17 18 19 20 21 22 23 24 25 26 27 28 29 30 31 32 33 34 35 36 37 38 39 40 41 42 43 44 45 46 47 48 49 50
000
ASUS43 KLOT 261010
RWRIL

ILLINOIS REGIONAL WEATHER ROUNDUP
NATIONAL WEATHER SERVICE CHICAGO/ROMEOVILLE IL
400 AM CST WED NOV 26 2014

NOTE: "FAIR" INDICATES FEW OR NO CLOUDS BELOW 12,000 FEET WITH NO
SIGNIFICANT WEATHER AND/OR OBSTRUCTIONS TO VISIBILITY.

* THESE STATIONS ARE NOT UNDER NWS QUALITY CONTROL. THEY ALSO MAY NOT
  REPORT WEATHER SUCH AS PRECIPITATION OR FOG.

ILZ001-002-007-009-015-016-024-261100-
NORTHWEST ILLINOIS

CITY           SKY/WX    TMP DP  RH WIND       PRES   REMARKS
MOLINE         MOCLDY    17  13  84 E7        30.08F WCI   8
STERLING*      MOCLDY    16  12  86 E7        30.11F WCI   6
SAVANNA*       MOCLDY    15  13  90 E3        30.12F
$$

ILZ003-004-008-010-011-017-018-261100-
NORTH CENTRAL ILLINOIS

CITY           SKY/WX    TMP DP  RH WIND       PRES   REMARKS
ROCKFORD       PTCLDY    13   8  81 CALM      30.15F HAZE
FREEPORT*      MOCLDY     8   5  89 CALM      30.14F FOG
ROCHELLE*      PTCLDY    13  11  92 CALM      30.13F FOG
DE KALB*       PTCLDY    12   9  90 CALM      30.13F FOG
PERU*          PTCLDY    17  15  94 E3        30.13S FOG
$$

ILZ005-006-012>014-019>023-261100-
NORTHEAST ILLINOIS

CITY           SKY/WX    TMP DP  RH WIND       PRES   REMARKS
CHICAGO-OHARE  CLEAR     19  15  84 E8        30.14F WCI   9
CHICAGO-MIDWAY MOCLDY    23  17  78 E6        30.16F WCI  16
AURORA         CLEAR     13   8  81 E3        30.14F HAZE
LANSING*       CLOUDY    23  19  81 CALM      30.17F
JOLIET*        CLEAR     18  16  91 E3        30.15F FOG
WAUKEGAN       CLEAR     11   7  84 CALM      30.14F
DUPAGE AIRPORT CLEAR     15  11  83 CALM      30.13F FOG
KANKAKEE*      CLEAR    N/A N/A N/A E7        30.16F
WHEELING       CLEAR     19  15  84 E3        30.17F
MORRIS*        CLEAR     17  17  97 E5        30.14F FOG     WCI  10
ROMEOVILLE*    CLEAR     19  18  96 E6        30.14F WCI  10
NORTHERLY ISL    N/A     23  18  81 SE3         N/A
$$

LMZ740>746-261100-
SOUTHERN LAKE MICHIGAN

STATION/POSITION SKY/WX   TEMP    WIND        PRES    VSBY  WAVE
                          AIR SEA DIR/SP/G                  HT/PER
                          (F)     (DEG/KT/KT) (MB)    (MI)  (FT/S)
SOUTHERN BUOY              28 42  260/  6/ 10 1022.5F         1/ 3
WAUKEGAN HARBOR            20      CALM  /  2   N/A
HARRISON CRIB              23     100/  5/  6   N/A
BURNHAM HARBOR             23      80/  2/  5   N/A
CALUMET HARBOR             22      40/  1/  2 1020.3F
MICHIGAN CITY              23      80/  4/  6   N/A
$$

ILZ025>027-034>036-040-047-049-050-058-095>099-261100-
WEST-CENTRAL ILLINOIS

CITY           SKY/WX    TMP DP  RH WIND       PRES   REMARKS
QUINCY         CLOUDY    27  22  81 SE7       30.04F WCI  19
GALESBURG*     MOCLDY    22  21  96 E5        30.07F WCI  15
MACOMB*        MOCLDY    25  24  95 SE5       30.09S WCI  19
JACKSONVILLE*  CLOUDY    30  26  87 SE8       30.08F WCI  22
PITTSFIELD*    CLOUDY    29  26  88 SE7       30.07F WCI  22
$$

ILZ028>032-037-038-041>044-048-051>054-059>061-261100-
CENTRAL ILLINOIS

CITY           SKY/WX    TMP DP  RH WIND       PRES   REMARKS
PONTIAC        CLEAR     22  20  92 E8        30.14S WCI  12
BLOOMINGTON    CLEAR     21  19  92 S8        30.12S WCI  11
DECATUR        CLEAR     23  19  85 CALM      30.13S
PEORIA         PTCLDY    24  19  81 SE3       30.12S
LACON*         PTCLDY    15  13  90 CALM      30.13R
LINCOLN*       CLEAR     23  21  93 SE5       30.14S WCI  17
SPRINGFIELD    PTCLDY    25  23  92 SE6       30.11F WCI  18
TAYLORVILLE    CLEAR     25  23  93 SE6       30.11F WCI  18
$$

ILZ033-039-045-046-055>057-062-063-261100-
EAST-CENTRAL ILLINOIS

CITY           SKY/WX    TMP DP  RH WIND       PRES   REMARKS
CHAMPAIGN      CLEAR     21  18  88 E9        30.12F WCI  11
DANVILLE*      CLEAR     20  19  95 E5        30.12F WCI  14
RANTOUL*       CLEAR     22  20  90 E8        30.13F WCI  13
MATTOON        CLEAR     22  19  89 SE6       30.11F WCI  14
PARIS*         CLEAR     24  23  96 CALM      30.15F
$$

ILZ079-100>102-261100-
SOUTHWEST ILLINOIS

CITY           SKY/WX    TMP DP  RH WIND       PRES   REMARKS
ALTON          MOCLDY    27  25  92 E5        30.11S WCI  22
BELLEVILLE     PTCLDY    25  24  99 SE2       30.11F
CAHOKIA*       PTCLDY    28  25  88 SE6       30.11S WCI  22
SPARTA*        CLEAR     27  24  91 SE6       30.12F WCI  20
$$

ILZ064>066-069>071-074>076-080>082-084>086-088>090-092>094-261100-
SOUTH-CENTRAL ILLINOIS

CITY           SKY/WX    TMP DP  RH WIND       PRES   REMARKS
CARBONDALE     CLEAR     21  19  92 E3        30.13F
CAIRO*         CLEAR     28  25  89 E3        30.13F
EFFINGHAM*     CLEAR     24  21  87 SE3       30.14S
MARION         CLEAR     27  25  93 CALM      30.14S
MT. VERNON     CLEAR     21  18  86 CALM      30.14S
CENTRALIA*     CLEAR     25  22  89 E5        30.12F WCI  19
SALEM*           N/A     27  24  87 SE6       30.13F WCI  21
METROPOLIS*    CLEAR     23  23 100 CALM        N/A  FOG
$$

ILZ067-068-072-073-078-083-087-091-261100-
SOUTHEAST ILLINOIS

CITY           SKY/WX    TMP DP  RH WIND       PRES   REMARKS
LAWRENCEVILLE  CLEAR     24  22  91 E7        30.16F WCI  16
FLORA*         CLEAR     23  22  99 CALM      30.15F
FAIRFIELD*     CLEAR     23  22  95 CALM      30.14S
HARRISBURG*    CLEAR     25  25 100 CALM      30.16S
ROBINSON*      CLEAR     23  22  93 E5        30.17F WCI  17
CARMI*         FOG       23  23 100 CALM      30.15S VSB 1/2
$$

ABBREVIATIONS USED IN REMARKS
   TC - TEMPERATURE IN CELSIUS
  WCI - WIND CHILL INDEX
   HX - HEAT INDEX
  VSB - VISIBILITY
$$



USA.gov is the U.S. government's official web portal to all federal, state and local government web resources and services.